St. Petersburg Airport, FL

1:27 PM EST on November 20, 2017 (GMT -0500)
Saint Petersburg-Clearwater International

Weather History for KPIE - November, 2014

Change the Weather History Date:

Monday, November 17, 2014

  Actual Average Record
Temperature  
Mean Temperature 73 °F -  
Max Temperature 80 °F 77 °F 85 °F (1957)
Min Temperature 64 °F 62 °F 43 °F (1970)
Cooling Degree Days 8    
Growing Degree Days 23 (Base 50)    
Moisture  
Dew Point 69 °F    
Average Humidity 95    
Maximum Humidity 100    
Minimum Humidity 79    
Precipitation  
Precipitation 0.00 in - - ()
Sea Level Pressure  
Sea Level Pressure 29.96 in    
Wind  
Wind Speed 11 mph (SSW)    
Max Wind Speed 25 mph    
Max Gust Speed 36 mph    
Visibility 7 miles    
Events Fog , Rain , Thunderstorm    
Averages and records for this station are not official NWS values.
T = Trace of Precipitation, MM = Missing Value Source: NWS Daily Summary

Daily Weather History Graph

Daily Weather History Graph

Search for Another Location

Airport or City:

Trip Planner

Search our weather history database for the weather conditions in past years. The results will help you decide how hot, cold, wet, or windy it might be!

Date:

Astronomy

Nov. 17, 2014 Rise Set
Actual Time 6:53 AM EST 5:37 PM EST
Civil Twilight 6:28 AM EST 6:02 PM EST
Nautical Twilight 6:00 AM EST 6:30 PM EST
Astronomical Twilight 5:32 AM EST 6:58 PM EST
Moon 2:19 AM EST (11/17) 2:38 PM EST (11/17)
Length of Visible Light 11h 33m
Length of Day
10h 43m
Waning Crescent, 23% of the Moon is Illuminated
Nov 17
Waning Crescent
Nov 22
New
Nov 29
First Quarter
Dec 6
Full
Dec 14
Last Quarter

Hourly Weather History & Observations

Time (EST) Temp. Heat Index Dew Point Humidity Pressure Visibility Wind Dir Wind Speed Gust Speed Precip Events Conditions
12:53 AM 68.0 °F - 64.9 °F 90% 30.02 in 10.0 mi SSE 5.8 mph - N/A   Clear
1:53 AM 68.0 °F - 66.0 °F 93% 30.00 in 10.0 mi SSE 8.1 mph - N/A   Clear
2:53 AM 68.0 °F - 66.0 °F 93% 29.99 in 9.0 mi SSE 5.8 mph - N/A   Clear
3:53 AM 66.2 °F - 66.2 °F 100% 29.97 in 9.0 mi SSE 6.9 mph - N/A   Clear
4:53 AM 68.0 °F - 66.0 °F 93% 29.97 in 10.0 mi SSE 6.9 mph - N/A   Clear
5:53 AM 68.0 °F - 66.0 °F 93% 29.98 in 8.0 mi SSE 4.6 mph - N/A   Partly Cloudy
6:53 AM 68.0 °F - 66.9 °F 96% 29.98 in 7.0 mi SSE 8.1 mph - N/A   Partly Cloudy
7:53 AM 71.1 °F - 69.1 °F 93% 29.99 in 10.0 mi South 9.2 mph - N/A   Partly Cloudy
8:53 AM 75.0 °F - 71.1 °F 87% 29.99 in 10.0 mi South 12.7 mph - N/A   Scattered Clouds
9:53 AM 77.0 °F - 72.0 °F 84% 29.99 in 10.0 mi South 18.4 mph 25.3 mph N/A   Scattered Clouds
10:53 AM 79.0 °F - 72.0 °F 79% 29.95 in 10.0 mi South 18.4 mph 28.8 mph N/A   Scattered Clouds
11:39 AM 79.0 °F - 73.0 °F 82% 29.94 in 10.0 mi South 20.7 mph 26.5 mph 0.00 in   Mostly Cloudy
11:53 AM 80.1 °F 84.2 °F 73.0 °F 79% 29.94 in 10.0 mi South 23.0 mph 29.9 mph 0.00 in   Mostly Cloudy
12:20 PM 75.9 °F - 73.9 °F 94% 29.93 in 7.0 mi SSW 23.0 mph 28.8 mph 0.00 in Rain Light Rain
12:33 PM 75.9 °F - 75.0 °F 97% 29.93 in 7.0 mi SSW 18.4 mph 29.9 mph 0.00 in Rain Light Rain
12:53 PM 75.9 °F - 75.0 °F 97% 29.93 in 7.0 mi SSW 16.1 mph - 0.00 in Thunderstorm Overcast
1:12 PM 75.9 °F - 75.0 °F 97% 29.92 in 10.0 mi SSW 16.1 mph 20.7 mph 0.00 in   Overcast
1:53 PM 75.9 °F - 75.0 °F 97% 29.91 in 10.0 mi SSW 19.6 mph 27.6 mph 0.00 in   Overcast
2:00 PM 75.9 °F - 75.0 °F 97% 29.91 in 10.0 mi SSW 17.3 mph - N/A   Overcast
2:31 PM 75.2 °F - 75.2 °F 100% 29.92 in 1.8 mi SSW 20.7 mph 26.5 mph N/A Rain Heavy Rain
2:34 PM 75.9 °F - 75.0 °F 97% 29.95 in 0.8 mi West 25.3 mph 35.7 mph 0.00 in Rain Heavy Rain
2:44 PM 69.1 °F - 69.1 °F 100% 29.96 in 0.5 mi West 13.8 mph 32.2 mph N/A Fog , Rain Heavy Rain
2:53 PM 69.1 °F - 68.0 °F 96% 29.94 in 0.8 mi West 10.4 mph - N/A Rain , Thunderstorm Heavy Thunderstorms and Rain
2:55 PM 69.1 °F - 68.0 °F 96% 29.93 in 1.0 mi West 12.7 mph - N/A Rain , Thunderstorm Heavy Thunderstorms and Rain
3:05 PM 69.1 °F - 69.1 °F 100% 29.91 in 3.0 mi South 6.9 mph - N/A Rain , Thunderstorm Thunderstorms and Rain
3:14 PM 69.1 °F - 69.1 °F 100% 29.92 in 10.0 mi South 8.1 mph - N/A Rain , Thunderstorm Light Rain
3:29 PM 69.1 °F - 69.1 °F 100% 29.93 in 9.0 mi SSW 6.9 mph - N/A Rain Light Rain
3:53 PM 69.1 °F - 68.0 °F 96% 29.94 in 3.0 mi SSW 9.2 mph - N/A Rain , Thunderstorm Light Rain
4:01 PM 69.1 °F - 68.0 °F 96% 29.94 in 4.0 mi WSW 9.2 mph - N/A Rain , Thunderstorm Thunderstorms and Rain
4:10 PM 69.1 °F - 68.0 °F 96% 29.95 in 2.5 mi SW 12.7 mph - N/A Rain Light Rain
4:20 PM 68.0 °F - 68.0 °F 100% 29.94 in 1.8 mi SSW 8.1 mph - N/A Rain Rain
4:42 PM 68.0 °F - 68.0 °F 100% 29.94 in 1.8 mi SW 6.9 mph - N/A Rain , Thunderstorm Rain
4:51 PM 68.0 °F - 68.0 °F 100% 29.94 in 5.0 mi SSW 8.1 mph - N/A Rain Light Rain
4:53 PM 68.0 °F - 68.0 °F 100% 29.94 in 5.0 mi South 8.1 mph - N/A Rain Light Rain
5:53 PM 68.0 °F - 68.0 °F 100% 29.95 in 8.0 mi South 8.1 mph - N/A Rain Light Rain
6:42 PM 68.0 °F - 68.0 °F 100% 29.94 in 9.0 mi South 6.9 mph - N/A   Partly Cloudy
6:53 PM 68.0 °F - 66.9 °F 96% 29.95 in 9.0 mi SSE 10.4 mph - N/A   Mostly Cloudy
7:11 PM 68.0 °F - 66.9 °F 96% 29.96 in 8.0 mi SSE 9.2 mph - N/A   Overcast
7:53 PM 69.1 °F - 66.9 °F 93% 29.97 in 9.0 mi South 9.2 mph - N/A   Overcast
8:00 PM 69.1 °F - 66.9 °F 93% 29.98 in 9.0 mi South 10.4 mph - N/A   Overcast
8:53 PM 69.1 °F - 66.9 °F 93% 29.99 in 9.0 mi South 8.1 mph - N/A Rain Light Rain
9:53 PM 69.1 °F - 68.0 °F 96% 29.99 in 10.0 mi South 8.1 mph - N/A   Mostly Cloudy
10:27 PM 69.1 °F - 68.0 °F 96% 30.01 in 7.0 mi WNW 11.5 mph - N/A Rain Light Rain
10:46 PM 68.0 °F - 66.9 °F 96% 30.02 in 9.0 mi NW 13.8 mph - N/A   Overcast
10:53 PM 66.9 °F - 66.9 °F 100% 30.03 in 5.0 mi NW 13.8 mph - N/A   Overcast
11:24 PM 66.9 °F - 66.0 °F 97% 30.03 in 7.0 mi WNW 10.4 mph - N/A   Overcast
11:33 PM 66.0 °F - 64.9 °F 96% 30.03 in 3.0 mi NNW 15.0 mph 20.7 mph N/A   Overcast
11:53 PM 64.0 °F - 63.0 °F 96% 30.03 in 5.0 mi NNW 18.4 mph - N/A   Overcast